STARLINK-32347 (61010 NORAD) Tracking and Keplerian Element Data

This shows tracking and keplerian element data for the satellite.

Feedback or suggestion? Click here.




ElementValue
Catalog61010
NameSTARLINK-32347
Epoch Orbit697
Epoch Day286.75743104
Epoch Year2024
RAAN293.3974
Inclination53.1622
Eccentricity0.0001665
Argument of Perigee73.0586
Mean Anonmoly287.0601
Mean Motion15.3964378
Decay Rate-1.536E-05
L11 61010U 24158W 24286.75743104 -.00001536 00000+0 -28382-4 0 9994
L22 61010 53.1622 293.3974 0001665 73.0586 287.0601 15.39643780 6975



Live tracking and technical data element details for STARLINK-32347 (NORAD 61010). STARLINK-32347 can be tracked NOW for your location showing map with azimuth and elevation plus other details from your city location.







IsCatalogInMostPopularTable: catalog: 61010, numindb: 8
Update: records affected: 1



GetName: 61010 STARLINK-32347

Hit Count: updated at: Wed, 04 Dec 2024 19:44:24 GMT